Regional Weather Roundup
Issued by NWS

Home | Current Version | Previous Version | Text Only | Print | Product List | Glossary On
Versions: 1 2 3 4 5 6 7 8 9 10 11 12 13 14 15 16 17 18 19 20 21 22 23 24 25 26 27 28 29 30 31 32 33 34 35 36 37 38 39 40 41 42 43 44 45 46 47 48 49 50
000
ASUS43 KMPX 011710
RWRMN
WEATHER ROUNDUP FOR MINNESOTA
NATIONAL WEATHER SERVICE TWIN CITIES/CHANHASSEN MN
1100 AM CST MON MAR 01 2021


NOTE: "FAIR" INDICATES FEW OR NO CLOUDS BELOW 12,000 FEET WITH NO
SIGNIFICANT WEATHER AND/OR OBSTRUCTIONS TO VISIBILITY. N/A MEANS
CURRENT SKY AND/OR WEATHER CONDITIONS ARE NOT AVAILABLE.

MNZ060>063-068>070-011800-
   Twin Cities Metro

CITY           SKY/WX    TMP DP  RH WIND       PRES   REMARKS
TWIN CITIES    SUNNY     18   2  49 VRB7      30.40R WCI   9
ST PAUL        SUNNY     17  -3  41 N10       30.41R WCI   5
CRYSTAL        SUNNY     16  -1  47 N6        30.39R WCI   7
BLAINE         SUNNY     16   1  53 NW9       30.39R WCI   4
LAKEVILLE      SUNNY     18   1  49 NW5       30.38R WCI  11
EDEN PRAIRIE   SUNNY     18   0  45 N5        30.38R WCI  11
SOUTH ST PAUL  SUNNY     17   0  47 N5        30.40R WCI  10
LAKE ELMO      FAIR      14  -4  44 MISG      30.39R
$$
MNZ001>005-007-008-013>017-022>024-027-028-011800-
   Northwest Minnesota

CITY           SKY/WX    TMP DP  RH WIND       PRES   REMARKS
BEMIDJI        SUNNY      2 -13  47 CALM      30.37R
HALLOCK        SUNNY      1  -9  60 CALM      30.42S
ROSEAU         SUNNY      1 -17  42 S3        30.41S
WARROAD        SUNNY      0 -11  60 S5        30.40S WCI -10
THIEF RVR FALL SUNNY      3 -10  54 SW5       30.42R WCI  -6
CROOKSTON      SUNNY      3 -13  47 CALM      30.44S
FOSSTON        SUNNY      0 -17  46 CALM      30.39R
DETROIT LAKES  SUNNY      5 -11  47 CALM      30.38R
MOORHEAD       SUNNY      5  -9  51 N3        30.44R
PARK RAPIDS    SUNNY      4  -9  55 W6        30.36R WCI  -7
MAHNOMEN       FAIR       2 -13  47 CALM      30.39S
$$
MNZ006-009>011-018-025>026-011800-
   North Central Minnesota

CITY           SKY/WX    TMP DP  RH WIND       PRES   REMARKS
BAUDETTE       SUNNY     -1 -14  53 CALM      30.38R
FLAG ISLAND    SUNNY     -6 -17  59 SE7       30.38S WCI -20
INTL FALLS     SUNNY      0 -17  44 W6        30.36R WCI -12
WASKISH        SUNNY     -2 -15  55 W6        30.39R WCI -14
BIG FORK       SUNNY      3 -18  36 CALM      30.39S
LONGVILLE        N/A      3 -13  47 CALM      30.36S
GRAND RAPIDS   SUNNY      3 -14  45 NW6       30.37S WCI  -8
CRANE LAKE       N/A      1 -18  39 NW6       30.38R WCI -10
ORR            SUNNY      1 -17  42 W7        30.31S WCI -11
COOK           SUNNY      3 -15  43 W5        30.33S WCI  -6
WALKER         SUNNY      4 -11  49 E3        30.36S
$$
MNZ012-019>021-037-011800-
   Northeast Minnesota

CITY           SKY/WX    TMP DP  RH WIND       PRES   REMARKS
DULUTH         SUNNY      7 -13  39 W7        30.32R WCI  -5
ELY            SUNNY      1 -17  42 NW8       30.29S WCI -12
HIBBING        SUNNY      3 -12  49 NW6       30.33R WCI  -8
EVELETH        SUNNY      3 -12  49 W7        30.34R WCI  -9
DULUTH HARBOR  SUNNY      7 -15  36 CALM      30.42R
TWO HARBORS    SUNNY      9 -15  33 NW6       30.33R WCI  -1
SILVER BAY     SUNNY      9 -18  28 SW5       30.32R WCI   0
GRAND MARAIS     N/A     12 -12  33 VRB6      30.33S WCI   3
G MARAIS ARPRT SUNNY      3 -18  36 NW9G16    30.18R WCI -11
$$
MNZ029>031-032-039>041-046>048-054>057-064-011800-
   West Central Minnesota

CITY           SKY/WX    TMP DP  RH WIND       PRES   REMARKS
FERGUS FALLS   SUNNY      9  -6  52 NE5       30.36R WCI   0
WHEATON        SUNNY      9   1  72 NW3       30.46R
MORRIS         SUNNY     12   0  57 CALM      30.41R
ALEXANDRIA     SUNNY     11  -3  53 N6        30.35F WCI   1
ELBOW LAKE     FAIR       7  -2  66 E5        30.40R WCI  -2
WADENA         SUNNY      7  -8  51 CALM      30.37R
GLENWOOD       SUNNY     10   0  61 NE3       30.37R
APPLETON       SUNNY     12   3  67 CALM      30.42R
BENSON         SUNNY     12   1  62 CALM      30.41S
ORTONVILLE     SUNNY     12   3  67 NE3       30.41R
MADISON        SUNNY     14   3  62 CALM      30.43R
WILLMAR        FAIR      14   1  57 NE6       30.41S WCI   5
$$
MNZ033>034-036-042>043-049>051-058-059-011800-
   Central Minnesota

CITY           SKY/WX    TMP DP  RH WIND       PRES   REMARKS
ST CLOUD       SUNNY     11  -4  51 N6        30.39R WCI   1
SAUK CENTRE      N/A     11  -4  50 N5        30.37S WCI   3
PAYNESVILLE    SUNNY     12   3  67 N3        30.38S
AITKIN         SUNNY      7 -13  40 CALM      30.38S
PINE RIVER     SUNNY      9  -9  43 N3        30.39R
BRAINERD       SUNNY      8 -12  39 N3        30.37F
STAPLES        SUNNY      9  -2  61 W5        30.37S WCI   0
LONG PRAIRIE   FAIR      10  -4  52 NE3       30.37S
LITTLE FALLS   SUNNY     12 -15  29 NE3       30.39S
CAMP RIPLEY    FAIR      10 -10  40 N3        30.39S
LITCHFIELD     SUNNY     14   5  67 NE5       30.39S WCI   6
BUFFALO        SUNNY     15   2  56 MISG      30.41R
MAPLE LAKE       N/A     16   1  53 NW5       30.40R WCI   9
HUTCHINSON     SUNNY     15   1  52 N6        30.40R WCI   6
$$
MNZ037-044-045-052-053-011800-
   East Central Minnesota

CITY           SKY/WX    TMP DP  RH WIND       PRES   REMARKS
PRINCETON      SUNNY     12  -8  40 N7        30.39R WCI   2
MORA           SUNNY     14  -4  44 NW3       30.40R
CAMBRIDGE      SUNNY     12  -2  52 N5        30.40R WCI   4
RUSH CITY      SUNNY     12  -6  43 N5        30.41R WCI   4
MOOSE LAKE     SUNNY     10 -13  34 N6        30.37R WCI   1
HINCKLEY       SUNNY     12  -9  37 CALM      30.39R
CLOQUET        SUNNY      5 -17  36 CALM      30.33R
MCGREGOR       SUNNY      9 -11  40 NW3       30.38R
$$
MNZ071>073-080-081-089-090-097-098-011800-
   Southwest Minnesota

CITY           SKY/WX    TMP DP  RH WIND       PRES   REMARKS
MONTEVIDEO     SUNNY     10   0  61 CALM      30.41S
GRANITE FALLS  SUNNY     16   7  67 N3        30.42F
CANBY          SUNNY     14   4  64 N5        30.42R WCI   6
MARSHALL       SUNNY     16   7  67 NE6       30.41R WCI   7
REDWOOD FALLS  SUNNY     16   7  67 VRB5      30.40S WCI   9
OLIVIA         SUNNY     12   5  73 NE5       30.40R WCI   4
PIPESTONE        N/A     16  10  79 E7        30.34R WCI   6
WINDOM         MOSUNNY   18  12  79 N9        30.35S WCI   6
WORTHINGTON    PTSUNNY   21  14  74 NE13      30.35R WCI   9
JACKSON        MOSUNNY   19  12  73 NE9       30.36R WCI   9
TRACY          SUNNY     14   8  74 N7        30.38S WCI   4
SLAYTON        SUNNY     14   9  80 N10       30.35S WCI   1
$$
MNZ065>067-074>077-082>085-091>093-011800-
   South Central Minnesota

CITY           SKY/WX    TMP DP  RH WIND       PRES   REMARKS
MANKATO        SUNNY     18   9  68 N10       30.39R WCI   6
NEW ULM        SUNNY     16   7  67 NE5       30.39S WCI   9
ST JAMES       SUNNY     18  12  79 N10       30.38S WCI   6
FAIRMONT       MOSUNNY   23  15  71 N12       30.38R WCI  12
GLENCOE        SUNNY     13   4  68 N8        30.40R WCI   1
FARIBAULT      SUNNY     18   9  68 N6        30.37S WCI   9
OWATONNA       SUNNY     16   9  73 NW6       30.36R WCI   7
WASECA         SUNNY     18   9  68 N7        30.38R WCI   8
ALBERT LEA     SUNNY     18  12  79 N9        30.35R WCI   6
$$
MNZ078>079-086>088-094>096-011800-
   Southeast Minnesota

CITY           SKY/WX    TMP DP  RH WIND       PRES   REMARKS
ROCHESTER      SUNNY     18   7  62 NW13      30.33R WCI   5
RED WING       SUNNY     18   1  49 N9        30.38R WCI   6
STANTON        SUNNY     17   6  61 NE6       30.37S WCI   9
DODGE CENTER   SUNNY     16   9  73 N8        30.34R WCI   5
WINONA         SUNNY     23  12  63 N5        30.37R WCI  17
AUSTIN         SUNNY     18  12  79 N12       30.34S WCI   5
PRESTON        SUNNY     18   9  69 NW12      30.32R WCI   5
$$
ABBREVIATIONS USED IN REMARKS
   TC - TEMPERATURES IN CELSIUS
  WCI - WIND CHILL INDEX
   HX - HEAT INDEX
  VSB - VISIBILITY
$$



USA.gov is the U.S. government's official web portal to all federal, state and local government web resources and services.